[[{"header":{"parameterUnit":"m.s-1","parameterCategory":1,"la1":30.2991,"la2":30.254,"lo1":-89.0895,"lo2":-89.0444,"dy":0.0017,"dx":0.0017,"nx":28,"ny":28,"refTime":"2024-08-10T09:00:00:Z","depth":0,"parameterNumber":2,"parameterNumberName":"U-component_of_WINDS"},"data":[0,0,0,0,0,0,0,0,0,0,0,0,0,0,0,0,0,0,0,0,0,0,0,0,0,0,0,0,0,0,0,0,0,0,0,0,0,0,0,0,0,0,0,0,0,0,0,0,0,0,0,0,0,0,0,0,0,0,2.4799,2.48,0,2.4939,2.4941,2.4943,2.4964,2.4962,2.4961,2.496,2.5103,2.5107,2.5112,0,0,0,0,0,0,0,0,0,0,0,0,0,2.4546,2.455,2.4799,2.48,2.4802,2.4939,2.4941,2.4943,2.4964,2.4962,2.4961,2.4959,2.5101,2.5107,2.5113,0,0,0,0,0,0,0,0,0,0,0,0,0,2.4668,2.4552,2.4798,2.4829,2.4833,2.4939,2.4941,2.4944,2.4964,2.4962,2.496,2.4959,2.5099,2.5106,2.5114,2.5198,0,0,2.5136,2.514,0,0,0,0,0,0,0,0,2.4661,2.4677,2.4823,2.4827,2.4832,2.4932,2.4904,2.5029,2.4965,2.4915,2.496,2.4958,2.5047,2.5059,2.5089,2.5204,2.521,2.5137,2.5142,2.5145,2.5147,0,0,0,0,0,0,0,2.4653,2.4671,2.4854,2.4825,2.4831,2.4835,2.485,2.4928,2.499,2.4919,2.4921,2.4937,2.5049,2.5082,2.5093,2.5213,2.5137,2.5143,2.5148,2.5151,2.5402,2.5404,0,0,0,0,0,0,2.4639,2.4664,2.485,2.4859,2.474,2.4841,2.4858,2.4902,2.4989,2.5001,2.4939,2.4938,2.507,2.5084,2.5098,2.5201,2.5145,2.5152,2.5156,2.54,2.5402,2.5405,0,0,0,0,0,0,2.4633,2.4655,2.4844,2.4762,2.4786,2.4848,2.4896,2.4906,2.4938,2.5004,2.5015,2.4961,2.5069,2.5087,2.5172,2.5206,2.5155,2.5162,2.5397,2.54,2.5403,2.5407,0,0,0,0,0,0,2.4626,2.4653,2.4686,2.4763,2.4791,2.4917,2.4899,2.491,2.4951,2.4951,2.5028,2.5038,2.5069,2.5161,2.518,2.5215,2.5168,2.5394,2.5399,2.5402,2.5404,2.541,2.5415,0,0,0,0,0,2.4617,2.4682,2.4688,2.471,2.4834,2.4919,2.4935,2.4969,2.4954,2.4987,2.5029,2.5036,2.52,2.517,2.5191,2.5229,2.5392,2.5397,2.5402,2.5402,2.5409,2.5415,0,0,0,0,0,0,2.4607,2.4692,2.47,2.4792,2.4848,2.4922,2.4965,2.4976,2.5037,2.5035,2.5075,2.5092,2.5174,2.5211,2.5176,2.5314,2.5295,2.5304,2.5287,2.5295,2.53,2.5289,2.5174,0,0,0,0,0,2.4616,2.4679,2.475,2.4824,2.4851,2.4903,2.4942,2.4964,2.5023,2.5047,2.5095,2.5152,2.5216,2.5258,2.5321,2.541,2.5426,2.5447,2.5452,2.5457,2.5464,2.5512,2.5521,2.5421,2.5421,2.5421,0,0,2.4634,2.4689,2.4726,2.4823,2.4869,2.4932,2.4923,2.4991,2.5038,2.5057,2.514,2.5177,2.5244,2.5331,2.5372,2.5363,2.5495,2.5463,2.5466,2.5471,2.5518,2.5527,2.5536,2.5424,2.5423,2.5423,0,0,2.4699,2.4748,2.4814,2.486,2.493,2.4964,2.498,2.5053,2.5078,2.5162,2.5178,2.5234,2.5344,2.539,2.5428,2.551,2.5518,2.5529,2.5557,2.5604,2.5612,2.5619,2.5646,2.5656,2.5537,2.5537,2.5537,0,2.4713,2.481,2.4846,2.4913,2.4955,2.4976,2.5042,2.5085,2.5172,2.52,2.519,2.5327,2.5374,2.5471,2.5491,2.5521,2.5539,2.552,2.5608,2.5615,2.5623,2.5649,2.566,2.5537,2.5537,2.5537,2.5537,0,2.4822,2.4888,2.4933,2.5016,2.5063,2.513,2.5175,2.5218,2.5236,2.5271,2.5355,2.5411,2.5485,2.551,2.5528,2.561,2.5602,2.56,2.558,2.5632,2.5658,2.5668,2.5539,2.5538,2.5538,2.5538,0,0,2.4884,2.4987,2.5002,2.504,2.5118,2.517,2.5237,2.5309,2.5344,2.5404,2.5459,2.5552,2.5549,2.5592,2.5616,2.5657,2.5716,2.5649,2.5651,2.5658,2.5807,2.5807,2.5819,2.5722,2.5725,2.5726,2.5801,0,2.4957,2.5077,2.5112,2.5212,2.5273,2.5294,2.5352,2.5406,2.544,2.5496,2.5534,2.5598,2.5591,2.5617,2.5659,2.57,2.5746,2.5695,2.5773,2.5776,2.5754,2.5832,2.5833,2.5901,2.5811,2.5813,2.5814,0,2.5058,2.5119,2.5225,2.5295,2.5322,2.5373,2.5442,2.5496,2.5557,2.5579,2.5626,2.5646,2.5715,2.5693,2.5789,2.5753,2.5787,2.5812,2.5816,2.5823,2.5797,2.584,2.5924,2.5933,2.5831,2.583,2.5828,0,2.509,2.5199,2.5276,2.5308,2.5392,2.5427,2.5463,2.5523,2.5564,2.5624,2.565,2.5717,2.5753,2.5805,2.5841,2.5822,2.5933,2.5914,2.5952,2.595,2.5972,2.597,2.6061,2.5998,2.5997,2.5997,2.5997,0,2.5167,2.5231,2.5292,2.5339,2.5411,2.545,2.552,2.5557,2.561,2.5664,2.5686,2.5736,2.5783,2.5839,2.5869,2.5942,2.5959,2.5977,2.5984,2.5974,2.5971,2.5996,2.5991,2.6,2.5999,2.5999,2.5998,0,2.5214,2.5258,2.5343,2.5416,2.5435,2.5485,2.5546,2.5592,2.5627,2.5696,2.5714,2.5769,2.5836,2.5878,2.5964,2.5984,2.6063,2.607,2.6043,2.6045,2.6079,2.6075,2.6187,2.6203,2.6131,2.6131,2.6132,0,2.5259,2.5309,2.5386,2.5424,2.5461,2.5522,2.5564,2.5604,2.5647,2.572,2.5757,2.5826,2.5882,2.5989,2.6036,2.6101,2.6108,2.6143,2.6118,2.6106,2.6106,2.6102,2.6106,2.6146,2.6147,2.6147,2.6148,0,2.5334,2.5353,2.5413,2.548,2.5529,2.5584,2.5638,2.5668,2.5717,2.5763,2.5832,2.5877,2.5964,2.6031,2.61,2.6137,2.615,2.6155,2.6167,2.6157,2.6138,2.6147,2.6052,2.6152,2.6152,2.6151,2.6151,2.6151,2.5381,2.5425,2.5486,2.5551,2.5597,2.5647,2.5693,2.5734,2.5793,2.5867,2.5887,2.5959,2.6018,2.6112,2.615,2.6206,2.6201,2.6219,2.6223,2.6226,2.6225,2.6131,2.6219,2.6219,2.6219,2.6219,2.6219,0,2.5455,2.5495,2.5555,2.563,2.5681,2.569,2.575,2.5792,2.5855,2.5909,2.5965,2.6043,2.6109,2.6161,2.6228,2.6262,2.627,2.6278,2.6275,2.6283,2.6227,2.6209,2.6271,2.6271,2.6271,2.6271,2.6271,2.6271,2.5499,2.5574,2.56,2.5697,2.5737,2.5808,2.5841,2.5887,2.5931,2.6017,2.6072,2.6106,2.6159,2.623,2.6289,2.6303,2.6326,2.6333,2.6347,2.6293,2.6287,2.6282,2.6265,2.6338,2.6338,2.6399,2.6399,2.64]},{"header":{"parameterUnit":"m.s-1","parameterCategory":1,"la1":30.2991,"la2":30.254,"lo1":-89.0895,"lo2":-89.0444,"dy":0.0017,"dx":0.0017,"nx":28,"ny":28,"refTime":"2024-08-10T09:00:00:Z","depth":0,"parameterNumber":3,"parameterNumberName":"V-component_of_WINDS"},"data":[0,0,0,0,0,0,0,0,0,0,0,0,0,0,0,0,0,0,0,0,0,0,0,0,0,0,0,0,0,0,0,0,0,0,0,0,0,0,0,0,0,0,0,0,0,0,0,0,0,0,0,0,0,0,0,0,0,0,2.1566,2.1566,0,2.1544,2.1543,2.1543,2.1478,2.1477,2.1476,2.1474,2.1452,2.1453,2.1453,0,0,0,0,0,0,0,0,0,0,0,0,0,2.1553,2.1554,2.1566,2.1566,2.1566,2.1544,2.1543,2.1543,2.1479,2.1477,2.1475,2.1474,2.1452,2.1453,2.1453,0,0,0,0,0,0,0,0,0,0,0,0,0,2.1548,2.1554,2.1566,2.1531,2.1527,2.1544,2.1543,2.1543,2.1479,2.1477,2.1475,2.1473,2.1451,2.1452,2.1454,2.1503,0,0,2.1457,2.1457,0,0,0,0,0,0,0,0,2.1548,2.1548,2.1536,2.1533,2.153,2.1512,2.1531,2.1529,2.148,2.1497,2.1474,2.1472,2.1474,2.1473,2.1473,2.1502,2.1501,2.1457,2.1458,2.1458,2.1458,0,0,0,0,0,0,0,2.1549,2.1549,2.1557,2.1536,2.1532,2.1516,2.1513,2.153,2.1498,2.1496,2.1491,2.1489,2.1471,2.1472,2.1472,2.15,2.1457,2.1458,2.1459,2.1459,2.1566,2.1569,0,0,0,0,0,0,2.1554,2.155,2.1558,2.1557,2.1534,2.1518,2.1514,2.152,2.1497,2.1492,2.1491,2.1486,2.1471,2.1471,2.1471,2.1526,2.1458,2.1459,2.146,2.1564,2.1567,2.1569,0,0,0,0,0,0,2.1554,2.1555,2.1559,2.1552,2.1551,2.152,2.1527,2.152,2.1521,2.1494,2.1488,2.1498,2.147,2.147,2.1495,2.1524,2.146,2.1461,2.1562,2.1565,2.1568,2.1637,0,0,0,0,0,0,2.1554,2.1556,2.1574,2.1553,2.1552,2.1583,2.1529,2.1521,2.1523,2.1517,2.1499,2.1494,2.1468,2.1494,2.1496,2.1525,2.1461,2.1559,2.1563,2.1567,2.1632,2.1643,2.1652,0,0,0,0,0,2.1554,2.1595,2.1576,2.1577,2.1574,2.1585,2.1585,2.1554,2.1526,2.1544,2.1526,2.1494,2.1521,2.1497,2.1499,2.1529,2.1557,2.1562,2.1567,2.1628,2.1641,2.1651,0,0,0,0,0,0,2.1622,2.1592,2.157,2.1605,2.1598,2.1574,2.1596,2.1569,2.157,2.1564,2.1526,2.1523,2.1553,2.1543,2.1517,2.1574,2.1534,2.1539,2.1579,2.1591,2.1601,2.1602,2.1462,0,0,0,0,0,2.1641,2.1652,2.1625,2.1659,2.1657,2.1627,2.1631,2.1608,2.1599,2.1596,2.158,2.1573,2.158,2.1585,2.159,2.1631,2.1625,2.1652,2.1662,2.167,2.1675,2.1695,2.1706,2.1586,2.1586,2.1585,0,0,2.168,2.1665,2.1675,2.1673,2.1664,2.1677,2.1625,2.1641,2.165,2.1599,2.1621,2.1609,2.1599,2.1632,2.1646,2.1625,2.1707,2.1676,2.1682,2.1683,2.1701,2.1712,2.1723,2.1589,2.1588,2.1588,0,0,2.1759,2.1749,2.1775,2.1768,2.1756,2.1736,2.1742,2.1722,2.1712,2.1734,2.1696,2.1706,2.1718,2.1712,2.1711,2.1785,2.1756,2.1788,2.1838,2.1858,2.1868,2.1876,2.1902,2.1912,2.1793,2.1794,2.1794,0,2.1809,2.1826,2.1793,2.181,2.181,2.1764,2.179,2.1785,2.1776,2.1776,2.1753,2.1767,2.1756,2.1787,2.1805,2.1806,2.1812,2.179,2.1869,2.1877,2.1884,2.1908,2.1918,2.1798,2.1797,2.1797,2.1796,0,2.1889,2.1902,2.1925,2.1916,2.1918,2.194,2.191,2.1916,2.1893,2.1875,2.1898,2.1884,2.1884,2.189,2.1868,2.1917,2.1904,2.1876,2.1834,2.19,2.1922,2.1931,2.1803,2.1802,2.1801,2.18,0,0,2.201,2.1981,2.199,2.1985,2.1968,2.1977,2.1997,2.1997,2.2003,2.1998,2.2013,2.2024,2.1997,2.1995,2.1972,2.1989,2.2049,2.1958,2.1957,2.1975,2.2101,2.2123,2.2134,2.2029,2.2031,2.2032,2.2102,0,2.2083,2.2115,2.2085,2.2123,2.2133,2.2089,2.2106,2.2098,2.2082,2.2088,2.207,2.2078,2.2042,2.2041,2.2056,2.2038,2.2073,2.2033,2.2043,2.2043,2.2046,2.2146,2.2169,2.2236,2.2111,2.2112,2.2113,0,2.2174,2.2172,2.221,2.219,2.2193,2.2209,2.2206,2.2213,2.2202,2.2189,2.2187,2.2158,2.2175,2.2135,2.2158,2.2132,2.2134,2.2125,2.2127,2.2127,2.2082,2.2148,2.2256,2.2266,2.2127,2.2125,2.2125,0,2.2257,2.2264,2.2288,2.2285,2.2262,2.2274,2.2265,2.2251,2.2253,2.2251,2.2251,2.2251,2.2251,2.2251,2.2223,2.2196,2.225,2.2207,2.2239,2.224,2.2252,2.2252,2.2363,2.2255,2.2255,2.2255,2.2254,0,2.2342,2.2367,2.2325,2.234,2.2366,2.2331,2.2359,2.2345,2.2333,2.2344,2.2306,2.2318,2.228,2.2287,2.2265,2.2287,2.2288,2.2277,2.2271,2.2281,2.2282,2.2281,2.2276,2.2257,2.2257,2.2256,2.2256,0,2.244,2.2412,2.2435,2.2411,2.2405,2.2426,2.2405,2.2418,2.2399,2.2413,2.2414,2.2385,2.2391,2.2363,2.2365,2.235,2.2383,2.2369,2.2387,2.2382,2.2416,2.2413,2.2529,2.2543,2.2427,2.2428,2.2429,0,2.2495,2.2514,2.2491,2.2495,2.2488,2.2496,2.2497,2.2463,2.2466,2.2454,2.2468,2.2471,2.2471,2.2483,2.2462,2.2463,2.2448,2.2489,2.2448,2.2457,2.2448,2.2447,2.2449,2.2498,2.2499,2.25,2.2501,0,2.2597,2.2582,2.2585,2.2584,2.2586,2.2583,2.2577,2.2583,2.2546,2.2551,2.2557,2.2557,2.2558,2.2562,2.2558,2.2548,2.2519,2.2514,2.2522,2.2531,2.254,2.2535,2.2409,2.2512,2.2511,2.251,2.2509,2.2509,2.2675,2.2689,2.2675,2.2679,2.2671,2.2666,2.2677,2.2658,2.2662,2.266,2.264,2.2649,2.2637,2.2629,2.2622,2.2629,2.261,2.262,2.2623,2.2626,2.2632,2.254,2.2628,2.2628,2.2627,2.2627,2.2627,0,2.2774,2.2763,2.2767,2.276,2.2763,2.2734,2.2727,2.2731,2.274,2.2731,2.2732,2.2738,2.2741,2.2719,2.2719,2.2729,2.2715,2.273,2.2728,2.2726,2.2649,2.2643,2.2741,2.2741,2.2741,2.2741,2.274,2.274,2.2826,2.2847,2.2831,2.2848,2.2836,2.2845,2.2842,2.2838,2.283,2.2838,2.284,2.2826,2.2812,2.281,2.2811,2.2805,2.2806,2.2826,2.2815,2.2743,2.2732,2.2722,2.2715,2.2827,2.2827,2.2891,2.2892,2.2892]}]]